Time,TemperatureF,DewpointF,PressureIn,WindDirection,WindDirectionDegrees,WindSpeedMPH,WindSpeedGustMPH,Humidity,HourlyPrecipIn,Conditions,Clouds,dailyrainin,SoftwareType,DateUTC
2013-04-25 00:00:00,61.4,55.9,30.00,SW,235,0.0,0.0,82,0.00,,,0.00,Wunderground v.1.15,2013-04-25 04:00:00,
2013-04-25 00:05:00,61.4,55.9,30.00,WSW,246,0.0,0.0,82,0.00,,,0.00,Wunderground v.1.15,2013-04-25 04:05:00,
2013-04-25 00:10:00,61.4,55.9,30.00,WSW,246,0.0,0.0,82,0.00,,,0.00,Wunderground v.1.15,2013-04-25 04:10:00,
2013-04-25 00:15:00,61.4,55.9,30.00,West,263,0.0,0.0,82,0.00,,,0.00,Wunderground v.1.15,2013-04-25 04:15:00,
2013-04-25 00:20:00,61.6,56.0,30.00,West,273,1.0,1.0,82,0.00,,,0.00,Wunderground v.1.15,2013-04-25 04:20:00,
2013-04-25 00:25:00,62.0,56.4,30.01,West,260,1.0,1.0,82,0.00,,,0.00,Wunderground v.1.15,2013-04-25 04:25:00,
2013-04-25 00:35:00,62.2,56.3,30.01,SW,225,0.0,2.0,81,0.00,,,0.00,Wunderground v.1.15,2013-04-25 04:35:00,
2013-04-25 00:40:00,62.4,56.5,30.01,West,259,1.0,1.0,81,0.00,,,0.00,Wunderground v.1.15,2013-04-25 04:40:00,
2013-04-25 00:45:00,62.8,56.9,30.01,NW,318,1.0,2.0,81,0.00,,,0.00,Wunderground v.1.15,2013-04-25 04:45:00,
2013-04-25 00:55:00,62.8,56.5,30.01,WNW,284,0.0,2.0,80,0.00,,,0.00,Wunderground v.1.15,2013-04-25 04:55:00,
2013-04-25 01:00:00,62.7,56.8,30.01,West,270,0.0,2.0,81,0.00,,,0.00,Wunderground v.1.15,2013-04-25 05:00:00,
2013-04-25 01:05:00,62.6,56.7,30.01,NW,313,1.0,2.0,81,0.00,,,0.00,Wunderground v.1.15,2013-04-25 05:05:00,
2013-04-25 01:15:00,62.6,57.0,30.01,NW,312,0.0,2.0,82,0.00,,,0.00,Wunderground v.1.15,2013-04-25 05:15:00,
2013-04-25 01:20:00,62.7,57.1,30.01,NW,312,0.0,2.0,82,0.00,,,0.00,Wunderground v.1.15,2013-04-25 05:20:00,
2013-04-25 01:25:00,63.0,57.1,30.01,SSW,210,1.0,2.0,81,0.00,,,0.00,Wunderground v.1.15,2013-04-25 05:25:00,
2013-04-25 01:35:00,63.4,57.5,30.01,West,277,1.0,3.0,81,0.00,,,0.00,Wunderground v.1.15,2013-04-25 05:35:00,
2013-04-25 01:40:00,63.5,57.2,30.01,WSW,254,1.0,1.0,80,0.00,,,0.00,Wunderground v.1.15,2013-04-25 05:40:00,
2013-04-25 01:45:00,63.6,57.7,30.02,WNW,284,1.0,2.0,81,0.00,,,0.00,Wunderground v.1.15,2013-04-25 05:45:00,
2013-04-25 01:50:00,63.6,57.7,30.02,WSW,251,0.0,3.0,81,0.00,,,0.00,Wunderground v.1.15,2013-04-25 05:50:00,
2013-04-25 02:00:00,63.6,57.7,30.03,West,281,1.0,1.0,81,0.00,,,0.00,Wunderground v.1.15,2013-04-25 06:00:00,
2013-04-25 02:05:00,63.5,57.2,30.03,North,351,1.0,2.0,80,0.00,,,0.00,Wunderground v.1.15,2013-04-25 06:05:00,
2013-04-25 02:10:00,63.3,56.3,30.03,NE,49,0.0,2.0,78,0.00,,,0.00,Wunderground v.1.15,2013-04-25 06:10:00,
2013-04-25 02:15:00,63.0,55.7,30.03,NNE,14,0.0,2.0,77,0.00,,,0.00,Wunderground v.1.15,2013-04-25 06:15:00,
2013-04-25 02:25:00,62.4,54.0,30.03,NNW,330,1.0,3.0,74,0.00,,,0.00,Wunderground v.1.15,2013-04-25 06:25:00,
2013-04-25 02:30:00,62.0,53.6,30.03,ESE,102,1.0,2.0,74,0.00,,,0.00,Wunderground v.1.15,2013-04-25 06:30:00,
2013-04-25 02:35:00,61.7,53.0,30.03,West,265,1.0,2.0,73,0.00,,,0.00,Wunderground v.1.15,2013-04-25 06:35:00,
2013-04-25 02:45:00,61.2,52.5,30.03,ENE,65,1.0,2.0,73,0.00,,,0.00,Wunderground v.1.15,2013-04-25 06:45:00,
2013-04-25 02:50:00,60.8,52.1,30.03,East,96,1.0,2.0,73,0.00,,,0.00,Wunderground v.1.15,2013-04-25 06:50:00,
2013-04-25 02:55:00,60.3,50.5,30.03,East,88,0.0,2.0,70,0.00,,,0.00,Wunderground v.1.15,2013-04-25 06:55:00,
2013-04-25 03:05:00,59.6,49.8,30.04,ENE,57,0.0,2.0,70,0.00,,,0.00,Wunderground v.1.15,2013-04-25 07:05:00,
2013-04-25 03:10:00,59.3,50.3,30.04,ESE,116,0.0,2.0,72,0.00,,,0.00,Wunderground v.1.15,2013-04-25 07:10:00,
2013-04-25 03:15:00,58.8,49.4,30.05,East,87,0.0,2.0,71,0.00,,,0.00,Wunderground v.1.15,2013-04-25 07:15:00,
2013-04-25 03:25:00,58.3,48.9,30.06,ENE,78,1.0,2.0,71,0.00,,,0.00,Wunderground v.1.15,2013-04-25 07:25:00,
2013-04-25 03:30:00,58.1,49.1,30.06,East,82,1.0,7.0,72,0.00,,,0.00,Wunderground v.1.15,2013-04-25 07:30:00,
2013-04-25 03:35:00,57.8,48.1,30.06,WNW,298,1.0,7.0,70,0.00,,,0.00,Wunderground v.1.15,2013-04-25 07:35:00,
2013-04-25 03:40:00,57.6,47.5,30.06,WNW,300,1.0,1.0,69,0.00,,,0.00,Wunderground v.1.15,2013-04-25 07:40:00,
2013-04-25 03:50:00,57.2,46.7,30.07,SE,144,1.0,1.0,68,0.00,,,0.00,Wunderground v.1.15,2013-04-25 07:50:00,
2013-04-25 03:55:00,56.9,46.8,30.07,NW,314,1.0,2.0,69,0.00,,,0.00,Wunderground v.1.15,2013-04-25 07:55:00,
2013-04-25 04:00:00,56.7,46.6,30.07,ESE,117,0.0,2.0,69,0.00,,,0.00,Wunderground v.1.15,2013-04-25 08:00:00,
2013-04-25 04:10:00,56.3,46.3,30.08,ENE,60,1.0,1.0,69,0.00,,,0.00,Wunderground v.1.15,2013-04-25 08:10:00,
2013-04-25 04:15:00,56.1,46.1,30.08,East,95,1.0,2.0,69,0.00,,,0.00,Wunderground v.1.15,2013-04-25 08:15:00,
2013-04-25 04:20:00,55.9,46.3,30.09,NNE,24,1.0,4.0,70,0.00,,,0.00,Wunderground v.1.15,2013-04-25 08:20:00,
2013-04-25 04:30:00,55.6,46.0,30.09,NE,49,1.0,1.0,70,0.00,,,0.00,Wunderground v.1.15,2013-04-25 08:30:00,
2013-04-25 04:35:00,55.5,45.5,30.10,South,169,1.0,2.0,69,0.00,,,0.00,Wunderground v.1.15,2013-04-25 08:35:00,
2013-04-25 04:40:00,55.3,45.3,30.10,NW,321,1.0,1.0,69,0.00,,,0.00,Wunderground v.1.15,2013-04-25 08:40:00,
2013-04-25 04:45:00,55.2,45.2,30.11,SSW,205,1.0,2.0,69,0.00,,,0.00,Wunderground v.1.15,2013-04-25 08:45:00,
2013-04-25 04:55:00,54.9,44.9,30.11,East,101,1.0,2.0,69,0.00,,,0.00,Wunderground v.1.15,2013-04-25 08:55:00,
2013-04-25 05:00:00,54.8,44.0,30.11,ENE,65,1.0,2.0,67,0.00,,,0.00,Wunderground v.1.15,2013-04-25 09:00:00,
2013-04-25 05:05:00,54.6,44.2,30.11,NW,322,1.0,2.0,68,0.00,,,0.00,Wunderground v.1.15,2013-04-25 09:05:00,
2013-04-25 05:15:00,54.3,44.0,30.11,NNW,330,0.0,2.0,68,0.00,,,0.00,Wunderground v.1.15,2013-04-25 09:15:00,
2013-04-25 05:20:00,54.1,43.8,30.12,ENE,72,1.0,1.0,68,0.00,,,0.00,Wunderground v.1.15,2013-04-25 09:20:00,
2013-04-25 05:25:00,53.9,44.0,30.12,SSE,157,0.0,2.0,69,0.00,,,0.00,Wunderground v.1.15,2013-04-25 09:25:00,
2013-04-25 05:30:00,53.7,43.4,30.12,North,349,1.0,1.0,68,0.00,,,0.00,Wunderground v.1.15,2013-04-25 09:30:00,
2013-04-25 05:40:00,53.1,42.4,30.13,NNE,15,1.0,2.0,67,0.00,,,0.00,Wunderground v.1.15,2013-04-25 09:40:00,
2013-04-25 05:45:00,52.8,42.1,30.14,North,9,0.0,2.0,67,0.00,,,0.00,Wunderground v.1.15,2013-04-25 09:45:00,
2013-04-25 05:50:00,52.5,41.5,30.14,West,273,0.0,4.0,66,0.00,,,0.00,Wunderground v.1.15,2013-04-25 09:50:00,
2013-04-25 06:00:00,52.1,40.3,30.13,ESE,109,2.0,2.0,64,0.00,,,0.00,Wunderground v.1.15,2013-04-25 10:00:00,
2013-04-25 06:05:00,51.9,40.1,30.14,SSW,205,1.0,2.0,64,0.00,,,0.00,Wunderground v.1.15,2013-04-25 10:05:00,
2013-04-25 06:10:00,51.7,40.3,30.15,SSW,205,0.0,2.0,65,0.00,,,0.00,Wunderground v.1.15,2013-04-25 10:10:00,
2013-04-25 06:20:00,51.4,39.6,30.15,SE,145,0.0,2.0,64,0.00,,,0.00,Wunderground v.1.15,2013-04-25 10:20:00,
2013-04-25 06:25:00,51.3,39.9,30.15,SW,215,0.0,2.0,65,0.00,,,0.00,Wunderground v.1.15,2013-04-25 10:25:00,
2013-04-25 06:30:00,51.2,40.2,30.16,South,171,0.0,2.0,66,0.00,,,0.00,Wunderground v.1.15,2013-04-25 10:30:00,
2013-04-25 06:35:00,51.1,40.1,30.16,SE,135,0.0,2.0,66,0.00,,,0.00,Wunderground v.1.15,2013-04-25 10:35:00,
2013-04-25 06:45:00,51.0,40.0,30.17,ENE,67,0.0,2.0,66,0.00,,,0.00,Wunderground v.1.15,2013-04-25 10:45:00,
2013-04-25 06:50:00,51.0,40.4,30.18,NE,48,0.0,2.0,67,0.00,,,0.00,Wunderground v.1.15,2013-04-25 10:50:00,
2013-04-25 07:00:00,50.6,40.8,30.19,North,5,0.0,2.0,69,0.00,,,0.00,Wunderground v.1.15,2013-04-25 11:00:00,
2013-04-25 07:05:00,50.4,40.2,30.19,ENE,59,1.0,2.0,68,0.00,,,0.00,Wunderground v.1.15,2013-04-25 11:05:00,
2013-04-25 07:10:00,50.3,39.8,30.19,East,91,1.0,1.0,67,0.00,,,0.00,Wunderground v.1.15,2013-04-25 11:10:00,
2013-04-25 07:15:00,50.1,39.6,30.20,ENE,76,1.0,2.0,67,0.00,,,0.00,Wunderground v.1.15,2013-04-25 11:15:00,
2013-04-25 07:25:00,50.0,39.5,30.21,NE,44,1.0,2.0,67,0.00,,,0.00,Wunderground v.1.15,2013-04-25 11:25:00,
2013-04-25 07:30:00,50.0,38.7,30.21,East,88,1.0,2.0,65,0.00,,,0.00,Wunderground v.1.15,2013-04-25 11:30:00,
2013-04-25 07:35:00,49.9,38.6,30.21,ENE,78,1.0,2.0,65,0.00,,,0.00,Wunderground v.1.15,2013-04-25 11:35:00,
2013-04-25 07:40:00,49.8,38.9,30.21,ENE,57,0.0,2.0,66,0.00,,,0.00,Wunderground v.1.15,2013-04-25 11:40:00,
2013-04-25 07:50:00,49.5,37.8,30.21,ENE,64,1.0,1.0,64,0.00,,,0.00,Wunderground v.1.15,2013-04-25 11:50:00,
2013-04-25 07:55:00,49.4,37.7,30.21,East,86,1.0,2.0,64,0.00,,,0.00,Wunderground v.1.15,2013-04-25 11:55:00,
2013-04-25 08:00:00,49.5,38.2,30.21,East,86,0.0,2.0,65,0.00,,,0.00,Wunderground v.1.15,2013-04-25 12:00:00,
2013-04-25 08:10:00,49.7,38.4,30.21,NE,42,0.0,2.0,65,0.00,,,0.00,Wunderground v.1.15,2013-04-25 12:10:00,
2013-04-25 08:15:00,49.9,38.2,30.22,East,91,0.0,2.0,64,0.00,,,0.00,Wunderground v.1.15,2013-04-25 12:15:00,
2013-04-25 08:20:00,50.0,37.5,30.22,NNE,33,1.0,2.0,62,0.00,,,0.00,Wunderground v.1.15,2013-04-25 12:20:00,
2013-04-25 08:30:00,50.0,37.5,30.22,East,84,1.0,1.0,62,0.00,,,0.00,Wunderground v.1.15,2013-04-25 12:30:00,
2013-04-25 08:35:00,49.9,37.4,30.22,East,83,1.0,2.0,62,0.00,,,0.00,Wunderground v.1.15,2013-04-25 12:35:00,
2013-04-25 08:40:00,49.9,37.4,30.22,East,88,1.0,1.0,62,0.00,,,0.00,Wunderground v.1.15,2013-04-25 12:40:00,
2013-04-25 08:50:00,50.0,37.1,30.22,NNE,13,0.0,2.0,61,0.00,,,0.00,Wunderground v.1.15,2013-04-25 12:50:00,
2013-04-25 08:55:00,50.2,37.3,30.23,East,80,1.0,2.0,61,0.00,,,0.00,Wunderground v.1.15,2013-04-25 12:55:00,
2013-04-25 09:00:00,50.5,37.1,30.23,East,80,0.0,2.0,60,0.00,,,0.00,Wunderground v.1.15,2013-04-25 13:00:00,
2013-04-25 09:05:00,50.7,37.7,30.22,ENE,57,0.0,2.0,61,0.00,,,0.00,Wunderground v.1.15,2013-04-25 13:05:00,
2013-04-25 09:15:00,51.5,38.9,30.23,SSE,153,1.0,2.0,62,0.00,,,0.00,Wunderground v.1.15,2013-04-25 13:15:00,
2013-04-25 09:20:00,52.1,37.8,30.23,ENE,76,1.0,1.0,58,0.00,,,0.00,Wunderground v.1.15,2013-04-25 13:20:00,
2013-04-25 09:25:00,52.6,37.8,30.23,SE,137,1.0,2.0,57,0.00,,,0.00,Wunderground v.1.15,2013-04-25 13:25:00,
2013-04-25 09:30:00,53.0,37.7,30.23,NNE,30,1.0,3.0,56,0.00,,,0.00,Wunderground v.1.15,2013-04-25 13:30:00,
2013-04-25 09:40:00,53.7,37.9,30.23,East,80,1.0,1.0,55,0.00,,,0.00,Wunderground v.1.15,2013-04-25 13:40:00,
2013-04-25 09:45:00,53.9,37.1,30.23,North,5,1.0,2.0,53,0.00,,,0.00,Wunderground v.1.15,2013-04-25 13:45:00,
2013-04-25 09:55:00,54.4,37.6,30.23,ENE,78,1.0,2.0,53,0.00,,,0.00,Wunderground v.1.15,2013-04-25 13:55:00,
2013-04-25 10:00:00,54.4,37.1,30.23,SW,229,1.0,2.0,52,0.00,,,0.00,Wunderground v.1.15,2013-04-25 14:00:00,
2013-04-25 10:05:00,54.7,39.3,30.23,East,90,1.0,2.0,56,0.00,,,0.00,Wunderground v.1.15,2013-04-25 14:05:00,
2013-04-25 10:10:00,55.1,39.2,30.23,ENE,68,0.0,2.0,55,0.00,,,0.00,Wunderground v.1.15,2013-04-25 14:10:00,
2013-04-25 10:20:00,55.5,38.1,30.23,East,85,1.0,1.0,52,0.00,,,0.00,Wunderground v.1.15,2013-04-25 14:20:00,
2013-04-25 10:25:00,55.7,40.2,30.23,ENE,63,1.0,3.0,56,0.00,,,0.00,Wunderground v.1.15,2013-04-25 14:25:00,
2013-04-25 10:30:00,56.0,39.1,30.23,SE,142,1.0,1.0,53,0.00,,,0.00,Wunderground v.1.15,2013-04-25 14:30:00,
2013-04-25 10:40:00,56.6,41.1,30.23,NE,56,1.0,2.0,56,0.00,,,0.00,Wunderground v.1.15,2013-04-25 14:40:00,
2013-04-25 10:45:00,56.7,38.8,30.23,East,86,1.0,2.0,51,0.00,,,0.00,Wunderground v.1.15,2013-04-25 14:45:00,
2013-04-25 10:50:00,57.0,39.0,30.23,NNW,330,1.0,2.0,51,0.00,,,0.00,Wunderground v.1.15,2013-04-25 14:50:00,
2013-04-25 10:55:00,57.2,40.7,30.23,SSW,212,1.0,2.0,54,0.00,,,0.00,Wunderground v.1.15,2013-04-25 14:55:00,
2013-04-25 11:05:00,57.3,39.8,30.22,West,270,2.0,2.0,52,0.00,,,0.00,Wunderground v.1.15,2013-04-25 15:05:00,
2013-04-25 11:10:00,57.2,39.2,30.22,NE,44,1.0,2.0,51,0.00,,,0.00,Wunderground v.1.15,2013-04-25 15:10:00,
2013-04-25 11:15:00,57.9,42.8,30.22,NNE,28,1.0,2.0,57,0.00,,,0.00,Wunderground v.1.15,2013-04-25 15:15:00,
2013-04-25 11:25:00,58.9,40.8,30.22,West,271,1.0,4.0,51,0.00,,,0.00,Wunderground v.1.15,2013-04-25 15:25:00,
2013-04-25 11:30:00,58.6,41.0,30.23,ENE,65,1.0,1.0,52,0.00,,,0.00,Wunderground v.1.15,2013-04-25 15:30:00,
2013-04-25 11:35:00,59.0,40.9,30.23,NE,49,1.0,2.0,51,0.00,,,0.00,Wunderground v.1.15,2013-04-25 15:35:00,
2013-04-25 11:45:00,59.2,39.0,30.23,ESE,103,1.0,2.0,47,0.00,,,0.00,Wunderground v.1.15,2013-04-25 15:45:00,
2013-04-25 11:50:00,59.1,39.9,30.23,North,355,1.0,2.0,49,0.00,,,0.00,Wunderground v.1.15,2013-04-25 15:50:00,
2013-04-25 11:55:00,59.6,40.4,30.23,North,5,1.0,2.0,49,0.00,,,0.00,Wunderground v.1.15,2013-04-25 15:55:00,
2013-04-25 12:00:00,59.8,42.1,30.22,SE,132,1.0,1.0,52,0.00,,,0.00,Wunderground v.1.15,2013-04-25 16:00:00,
2013-04-25 12:10:00,60.3,41.0,30.22,ESE,109,1.0,2.0,49,0.00,,,0.00,Wunderground v.1.15,2013-04-25 16:10:00,
2013-04-25 12:15:00,60.4,38.4,30.23,West,265,1.0,2.0,44,0.00,,,0.00,Wunderground v.1.15,2013-04-25 16:15:00,
2013-04-25 12:20:00,60.3,40.5,30.23,NW,306,2.0,2.0,48,0.00,,,0.00,Wunderground v.1.15,2013-04-25 16:20:00,
2013-04-25 12:30:00,61.1,40.1,30.23,SW,221,1.0,2.0,46,0.00,,,0.00,Wunderground v.1.15,2013-04-25 16:30:00,
2013-04-25 12:35:00,61.5,41.1,30.23,NE,51,1.0,2.0,47,0.00,,,0.00,Wunderground v.1.15,2013-04-25 16:35:00,
2013-04-25 12:40:00,62.0,41.5,30.23,ENE,78,1.0,1.0,47,0.00,,,0.00,Wunderground v.1.15,2013-04-25 16:40:00,
2013-04-25 12:50:00,62.3,40.7,30.23,NNW,335,1.0,2.0,45,0.00,,,0.00,Wunderground v.1.15,2013-04-25 16:50:00,
2013-04-25 12:55:00,62.5,41.4,30.23,North,355,1.0,2.0,46,0.00,,,0.00,Wunderground v.1.15,2013-04-25 16:55:00,
2013-04-25 13:00:00,62.7,40.5,30.23,NW,309,2.0,2.0,44,0.00,,,0.00,Wunderground v.1.15,2013-04-25 17:00:00,
2013-04-25 13:10:00,63.1,40.2,30.23,South,182,1.0,2.0,43,0.00,,,0.00,Wunderground v.1.15,2013-04-25 17:10:00,
2013-04-25 13:15:00,63.0,38.3,30.23,ENE,76,1.0,2.0,40,0.00,,,0.00,Wunderground v.1.15,2013-04-25 17:15:00,
2013-04-25 13:25:00,63.2,42.6,30.23,ENE,77,1.0,4.0,47,0.00,,,0.00,Wunderground v.1.15,2013-04-25 17:25:00,
2013-04-25 13:30:00,63.9,40.3,30.23,ESE,106,1.0,3.0,42,0.00,,,0.00,Wunderground v.1.15,2013-04-25 17:30:00,
2013-04-25 13:35:00,64.0,41.0,30.23,ENE,58,1.0,3.0,43,0.00,,,0.00,Wunderground v.1.15,2013-04-25 17:35:00,
2013-04-25 13:45:00,64.9,42.5,30.22,NW,307,0.0,2.0,44,0.00,,,0.00,Wunderground v.1.15,2013-04-25 17:45:00,
2013-04-25 13:50:00,64.9,39.3,30.22,NNW,342,1.0,2.0,39,0.00,,,0.00,Wunderground v.1.15,2013-04-25 17:50:00,
2013-04-25 13:55:00,65.0,41.9,30.22,ENE,59,1.0,2.0,43,0.00,,,0.00,Wunderground v.1.15,2013-04-25 17:55:00,
2013-04-25 14:00:00,65.0,38.1,30.22,West,259,1.0,1.0,37,0.00,,,0.00,Wunderground v.1.15,2013-04-25 18:00:00,
2013-04-25 14:10:00,64.9,40.6,30.21,West,269,1.0,3.0,41,0.00,,,0.00,Wunderground v.1.15,2013-04-25 18:10:00,
2013-04-25 14:15:00,64.9,39.3,30.21,North,9,2.0,3.0,39,0.00,,,0.00,Wunderground v.1.15,2013-04-25 18:15:00,
2013-04-25 14:20:00,65.1,39.5,30.22,ENE,64,2.0,2.0,39,0.00,,,0.00,Wunderground v.1.15,2013-04-25 18:20:00,
2013-04-25 14:25:00,65.6,40.6,30.21,ESE,118,1.0,2.0,40,0.00,,,0.00,Wunderground v.1.15,2013-04-25 18:25:00,
2013-04-25 14:35:00,66.4,40.0,30.21,ESE,118,1.0,2.0,38,0.00,,,0.00,Wunderground v.1.15,2013-04-25 18:35:00,
2013-04-25 14:40:00,66.3,38.5,30.21,SW,215,1.0,1.0,36,0.00,,,0.00,Wunderground v.1.15,2013-04-25 18:40:00,
2013-04-25 14:50:00,66.8,42.3,30.20,SE,141,1.0,2.0,41,0.00,,,0.00,Wunderground v.1.15,2013-04-25 18:50:00,
2013-04-25 14:55:00,67.1,40.6,30.20,SE,128,1.0,2.0,38,0.00,,,0.00,Wunderground v.1.15,2013-04-25 18:55:00,
2013-04-25 15:00:00,67.4,38.0,30.20,NNE,26,1.0,1.0,34,0.00,,,0.00,Wunderground v.1.15,2013-04-25 19:00:00,
2013-04-25 15:05:00,68.0,40.0,30.20,East,84,0.0,2.0,36,0.00,,,0.00,Wunderground v.1.15,2013-04-25 19:05:00,
2013-04-25 15:15:00,68.0,37.8,30.20,West,275,1.0,3.0,33,0.00,,,0.00,Wunderground v.1.15,2013-04-25 19:15:00,
2013-04-25 15:20:00,67.9,42.0,30.20,WSW,254,1.0,2.0,39,0.00,,,0.00,Wunderground v.1.15,2013-04-25 19:20:00,
2013-04-25 15:25:00,67.9,36.1,30.20,SSE,148,1.0,2.0,31,0.00,,,0.00,Wunderground v.1.15,2013-04-25 19:25:00,
2013-04-25 15:35:00,67.9,35.3,30.20,West,268,1.0,2.0,30,0.00,,,0.00,Wunderground v.1.15,2013-04-25 19:35:00,
2013-04-25 15:40:00,68.2,35.6,30.20,WSW,240,1.0,2.0,30,0.00,,,0.00,Wunderground v.1.15,2013-04-25 19:40:00,
2013-04-25 15:45:00,68.4,40.4,30.19,West,259,1.0,2.0,36,0.00,,,0.00,Wunderground v.1.15,2013-04-25 19:45:00,
2013-04-25 15:50:00,68.6,38.3,30.19,WSW,241,1.0,1.0,33,0.00,,,0.00,Wunderground v.1.15,2013-04-25 19:50:00,
2013-04-25 16:00:00,69.0,38.7,30.19,SSE,167,1.0,1.0,33,0.00,,,0.00,Wunderground v.1.15,2013-04-25 20:00:00,
2013-04-25 16:05:00,69.3,37.3,30.19,East,91,0.0,2.0,31,0.00,,,0.00,Wunderground v.1.15,2013-04-25 20:05:00,
2013-04-25 16:10:00,69.5,38.3,30.18,ESE,111,1.0,2.0,32,0.00,,,0.00,Wunderground v.1.15,2013-04-25 20:10:00,
2013-04-25 16:20:00,69.8,36.1,30.18,SSW,200,1.0,2.0,29,0.00,,,0.00,Wunderground v.1.15,2013-04-25 20:20:00,
2013-04-25 16:25:00,69.6,36.8,30.18,SW,225,2.0,2.0,30,0.00,,,0.00,Wunderground v.1.15,2013-04-25 20:25:00,
2013-04-25 16:30:00,69.7,34.2,30.18,West,271,2.0,5.0,27,0.00,,,0.00,Wunderground v.1.15,2013-04-25 20:30:00,
2013-04-25 16:40:00,70.0,36.3,30.18,NNW,342,1.0,3.0,29,0.00,,,0.00,Wunderground v.1.15,2013-04-25 20:40:00,
2013-04-25 16:45:00,69.8,36.1,30.18,WSW,252,1.0,3.0,29,0.00,,,0.00,Wunderground v.1.15,2013-04-25 20:45:00,
2013-04-25 16:50:00,69.9,38.7,30.18,ENE,58,1.0,1.0,32,0.00,,,0.00,Wunderground v.1.15,2013-04-25 20:50:00,
2013-04-25 16:55:00,70.0,35.4,30.18,SSE,161,1.0,2.0,28,0.00,,,0.00,Wunderground v.1.15,2013-04-25 20:55:00,
2013-04-25 17:05:00,70.3,34.7,30.17,North,9,1.0,2.0,27,0.00,,,0.00,Wunderground v.1.15,2013-04-25 21:05:00,
2013-04-25 17:10:00,70.4,34.8,30.17,North,9,1.0,2.0,27,0.00,,,0.00,Wunderground v.1.15,2013-04-25 21:10:00,
2013-04-25 17:15:00,70.9,34.3,30.17,North,360,0.0,2.0,26,0.00,,,0.00,Wunderground v.1.15,2013-04-25 21:15:00,
2013-04-25 17:25:00,70.8,33.2,30.17,North,11,1.0,3.0,25,0.00,,,0.00,Wunderground v.1.15,2013-04-25 21:25:00,
2013-04-25 17:30:00,70.6,31.0,30.17,North,349,1.0,1.0,23,0.00,,,0.00,Wunderground v.1.15,2013-04-25 21:30:00,
2013-04-25 17:35:00,70.3,32.8,30.17,NNE,15,1.0,2.0,25,0.00,,,0.00,Wunderground v.1.15,2013-04-25 21:35:00,
2013-04-25 17:45:00,70.7,34.1,30.17,NNE,19,0.0,2.0,26,0.00,,,0.00,Wunderground v.1.15,2013-04-25 21:45:00,
2013-04-25 17:50:00,70.8,36.1,30.17,SE,143,0.0,2.0,28,0.00,,,0.00,Wunderground v.1.15,2013-04-25 21:50:00,
2013-04-25 17:55:00,70.6,35.9,30.17,SE,143,0.0,2.0,28,0.00,,,0.00,Wunderground v.1.15,2013-04-25 21:55:00,
2013-04-25 18:05:00,70.9,36.1,30.17,SW,235,1.0,2.0,28,0.00,,,0.00,Wunderground v.1.15,2013-04-25 22:05:00,
2013-04-25 18:10:00,70.9,33.3,30.17,West,280,1.0,2.0,25,0.00,,,0.00,Wunderground v.1.15,2013-04-25 22:10:00,
2013-04-25 18:15:00,70.4,31.9,30.17,WSW,254,1.0,2.0,24,0.00,,,0.00,Wunderground v.1.15,2013-04-25 22:15:00,
2013-04-25 18:20:00,70.1,32.6,30.17,NNE,26,1.0,2.0,25,0.00,,,0.00,Wunderground v.1.15,2013-04-25 22:20:00,
2013-04-25 18:30:00,70.2,35.5,30.17,NNE,19,0.0,2.0,28,0.00,,,0.00,Wunderground v.1.15,2013-04-25 22:30:00,
2013-04-25 18:35:00,70.6,35.0,30.17,NNE,19,0.0,2.0,27,0.00,,,0.00,Wunderground v.1.15,2013-04-25 22:35:00,
2013-04-25 18:40:00,70.9,39.6,30.17,NNE,19,0.0,2.0,32,0.00,,,0.00,Wunderground v.1.15,2013-04-25 22:40:00,
2013-04-25 18:45:00,70.7,43.1,30.17,NNE,19,0.0,2.0,37,0.00,,,0.00,Wunderground v.1.15,2013-04-25 22:45:00,
2013-04-25 18:55:00,69.5,41.4,30.17,NNE,19,0.0,2.0,36,0.00,,,0.00,Wunderground v.1.15,2013-04-25 22:55:00,
2013-04-25 19:00:00,68.8,38.5,30.17,NNE,19,0.0,2.0,33,0.00,,,0.00,Wunderground v.1.15,2013-04-25 23:00:00,
2013-04-25 19:10:00,66.9,39.8,30.18,NNE,19,0.0,2.0,37,0.00,,,0.00,Wunderground v.1.15,2013-04-25 23:10:00,
2013-04-25 19:15:00,65.9,40.9,30.18,NNE,19,0.0,2.0,40,0.00,,,0.00,Wunderground v.1.15,2013-04-25 23:15:00,
2013-04-25 19:20:00,65.1,41.4,30.18,NNE,19,0.0,2.0,42,0.00,,,0.00,Wunderground v.1.15,2013-04-25 23:20:00,
2013-04-25 19:25:00,64.4,42.6,30.18,NNE,19,0.0,2.0,45,0.00,,,0.00,Wunderground v.1.15,2013-04-25 23:25:00,
2013-04-25 19:35:00,63.2,42.6,30.18,NNE,19,0.0,2.0,47,0.00,,,0.00,Wunderground v.1.15,2013-04-25 23:35:00,
2013-04-25 19:40:00,62.5,42.0,30.18,NNE,19,0.0,2.0,47,0.00,,,0.00,Wunderground v.1.15,2013-04-25 23:40:00,
2013-04-25 19:45:00,62.0,42.6,30.18,NNE,19,0.0,2.0,49,0.00,,,0.00,Wunderground v.1.15,2013-04-25 23:45:00,
2013-04-25 19:55:00,60.6,44.8,30.19,NNE,19,0.0,2.0,56,0.00,,,0.00,Wunderground v.1.15,2013-04-25 23:55:00,
2013-04-25 20:00:00,59.8,44.5,30.19,NNE,19,0.0,2.0,57,0.00,,,0.00,Wunderground v.1.15,2013-04-26 00:00:00,
2013-04-25 20:05:00,59.1,44.3,30.19,NNE,19,0.0,2.0,58,0.00,,,0.00,Wunderground v.1.15,2013-04-26 00:05:00,
2013-04-25 20:10:00,58.5,43.8,30.19,NNE,19,0.0,2.0,58,0.00,,,0.00,Wunderground v.1.15,2013-04-26 00:10:00,
2013-04-25 20:20:00,57.5,43.3,30.20,NNE,19,0.0,2.0,59,0.00,,,0.00,Wunderground v.1.15,2013-04-26 00:20:00,
2013-04-25 20:25:00,56.9,44.0,30.20,NNE,19,0.0,2.0,62,0.00,,,0.00,Wunderground v.1.15,2013-04-26 00:25:00,
2013-04-25 20:30:00,56.4,43.5,30.20,NNE,19,0.0,2.0,62,0.00,,,0.00,Wunderground v.1.15,2013-04-26 00:30:00,
2013-04-25 20:40:00,55.3,42.9,30.20,NNE,19,0.0,2.0,63,0.00,,,0.00,Wunderground v.1.15,2013-04-26 00:40:00,
2013-04-25 20:45:00,54.8,43.3,30.21,NNE,19,0.0,2.0,65,0.00,,,0.00,Wunderground v.1.15,2013-04-26 00:45:00,
2013-04-25 20:50:00,54.4,43.7,30.21,NNE,19,0.0,2.0,67,0.00,,,0.00,Wunderground v.1.15,2013-04-26 00:50:00,
2013-04-25 21:00:00,53.6,43.7,30.22,NNE,19,0.0,2.0,69,0.00,,,0.00,Wunderground v.1.15,2013-04-26 01:00:00,
2013-04-25 21:05:00,53.3,43.8,30.22,NNE,19,0.0,2.0,70,0.00,,,0.00,Wunderground v.1.15,2013-04-26 01:05:00,
2013-04-25 21:10:00,53.0,43.5,30.22,NNE,19,0.0,2.0,70,0.00,,,0.00,Wunderground v.1.15,2013-04-26 01:10:00,
2013-04-25 21:15:00,52.6,43.5,30.23,NNE,19,0.0,2.0,71,0.00,,,0.00,Wunderground v.1.15,2013-04-26 01:15:00,
2013-04-25 21:25:00,52.0,42.9,30.23,NNE,19,0.0,2.0,71,0.00,,,0.00,Wunderground v.1.15,2013-04-26 01:25:00,
2013-04-25 21:30:00,51.7,43.3,30.23,NNE,19,0.0,2.0,73,0.00,,,0.00,Wunderground v.1.15,2013-04-26 01:30:00,
2013-04-25 21:35:00,51.5,43.5,30.23,NNE,19,0.0,2.0,74,0.00,,,0.00,Wunderground v.1.15,2013-04-26 01:35:00,
2013-04-25 21:45:00,51.0,43.4,30.24,NNE,19,0.0,2.0,75,0.00,,,0.00,Wunderground v.1.15,2013-04-26 01:45:00,
2013-04-25 21:50:00,50.7,43.1,30.24,NNE,19,0.0,2.0,75,0.00,,,0.00,Wunderground v.1.15,2013-04-26 01:50:00,
2013-04-25 21:55:00,50.4,42.8,30.24,NNE,19,0.0,2.0,75,0.00,,,0.00,Wunderground v.1.15,2013-04-26 01:55:00,
2013-04-25 22:05:00,49.9,42.3,30.25,NNE,19,0.0,2.0,75,0.00,,,0.00,Wunderground v.1.15,2013-04-26 02:05:00,
2013-04-25 22:10:00,49.7,42.1,30.25,NNE,19,0.0,2.0,75,0.00,,,0.00,Wunderground v.1.15,2013-04-26 02:10:00,
2013-04-25 22:15:00,49.5,42.2,30.25,NNE,19,0.0,2.0,76,0.00,,,0.00,Wunderground v.1.15,2013-04-26 02:15:00,
2013-04-25 22:25:00,49.2,43.0,30.25,NNE,19,0.0,2.0,79,0.00,,,0.00,Wunderground v.1.15,2013-04-26 02:25:00,
2013-04-25 22:30:00,49.0,42.8,30.25,NNE,19,0.0,2.0,79,0.00,,,0.00,Wunderground v.1.15,2013-04-26 02:30:00,
2013-04-25 22:35:00,48.8,42.9,30.25,NNE,19,0.0,2.0,80,0.00,,,0.00,Wunderground v.1.15,2013-04-26 02:35:00,
2013-04-25 22:40:00,48.6,42.7,30.25,NNE,19,0.0,2.0,80,0.00,,,0.00,Wunderground v.1.15,2013-04-26 02:40:00,
2013-04-25 22:50:00,48.2,42.3,30.26,NNE,19,0.0,2.0,80,0.00,,,0.00,Wunderground v.1.15,2013-04-26 02:50:00,
2013-04-25 22:55:00,48.1,42.5,30.26,NNE,19,0.0,2.0,81,0.00,,,0.00,Wunderground v.1.15,2013-04-26 02:55:00,
2013-04-25 23:00:00,48.0,42.8,30.26,NNE,19,0.0,2.0,82,0.00,,,0.00,Wunderground v.1.15,2013-04-26 03:00:00,
2013-04-25 23:05:00,47.8,42.9,30.26,NNE,19,0.0,2.0,83,0.00,,,0.00,Wunderground v.1.15,2013-04-26 03:05:00,
2013-04-25 23:15:00,47.5,42.6,30.27,NNE,19,0.0,2.0,83,0.00,,,0.00,Wunderground v.1.15,2013-04-26 03:15:00,
2013-04-25 23:20:00,47.6,42.7,30.27,NNE,19,0.0,2.0,83,0.00,,,0.00,Wunderground v.1.15,2013-04-26 03:20:00,
2013-04-25 23:25:00,47.6,42.7,30.27,NNE,19,0.0,2.0,83,0.00,,,0.00,Wunderground v.1.15,2013-04-26 03:25:00,
2013-04-25 23:35:00,47.6,42.4,30.27,NNE,19,0.0,2.0,82,0.00,,,0.00,Wunderground v.1.15,2013-04-26 03:35:00,
2013-04-25 23:40:00,47.6,42.7,30.26,NNE,19,0.0,2.0,83,0.00,,,0.00,Wunderground v.1.15,2013-04-26 03:40:00,
2013-04-25 23:45:00,47.6,43.0,30.27,NNE,19,0.0,2.0,84,0.00,,,0.00,Wunderground v.1.15,2013-04-26 03:45:00,
2013-04-25 23:55:00,47.5,42.9,30.27,NNE,19,0.0,2.0,84,0.00,,,0.00,Wunderground v.1.15,2013-04-26 03:55:00,